Regional Weather Roundup
Issued by NWS

Home | Current Version | Previous Version | Graphics & Text | Print | Product List | Glossary On
Versions: 1 2 3 4 5 6 7 8 9 10 11 12 13 14 15 16 17 18 19 20 21 22 23 24 25 26 27 28 29 30 31 32 33 34 35 36 37 38 39 40 41 42 43 44 45 46 47 48 49 50
105
ASUS43 KLSX 271810
RWRMO

WEATHER SUMMARY FOR MISSOURI
NATIONAL WEATHER SERVICE SPRINGFIELD MO
100 PM CDT FRI MAY 27 2016

NOTE: "FAIR" INDICATES FEW OR NO CLOUDS BELOW 12,000 FEET WITH NO
       SIGNIFICANT WEATHER AND/OR OBSTRUCTIONS TO VISIBILITY.
       CURRENT SKY AND/OR WEATHER CONDITIONS ARE NOT AVAILABLE FOR
       CHILLICOTHE AND FARMINGTON.

MOZ001>031-035>038-043-044-053-054-271900-
...NORTHERN AND WESTERN MISSOURI...

CITY           SKY/WX    TMP DP  RH WIND       PRES   REMARKS
KANSAS CTY INT PTSUNNY   73  63  70 S8        29.74F
6HR MIN TEMP:  62; 6HR MAX TEMP:  74;

KANSAS C DTWN  MOSUNNY   77  63  61 S9        29.73F
6HR MIN TEMP:  64; 6HR MAX TEMP:  78;

LEE`S SUMMIT   MOSUNNY   76  65  68 S14       29.75S
6HR MIN TEMP:  62; 6HR MAX TEMP:  76;

ST JOSEPH      SUNNY     74  63  68 S7        29.74F
6HR MIN TEMP:  62; 6HR MAX TEMP:  74;

CHILLICOTHE      N/A     80  66  62 S12       29.75R
6HR MIN TEMP:  66; 6HR MAX TEMP:  80;

KIRKSVILLE     LGT RAIN  79  67  66 SW15G25   29.77S
6HR MIN TEMP:  66; 6HR MAX TEMP:  79; 6HR PCP: TRACE;


$$
MOZ066>068-077>081-088>096-101>105-271900-
...SOUTHWEST MISSOURI...

CITY           SKY/WX    TMP DP  RH WIND       PRES   REMARKS
SPRINGFIELD    CLOUDY    74  66  76 S15G21    29.79F
6HR MIN TEMP:  69; 6HR MAX TEMP:  74;

JOPLIN         CLOUDY    74  65  73 S13       29.74F
6HR MIN TEMP:  61; 6HR MAX TEMP:  74;

BRANSON        CLOUDY    73  66  78 S5        29.83S

$$
MOZ032>034-039>042-045>050-055>058-069>072-271900-
...CENTRAL MISSOURI...

CITY           SKY/WX    TMP DP  RH WIND       PRES   REMARKS
COLUMBIA       CLOUDY    78  68  71 S15       29.78F
6HR MIN TEMP:  67; 6HR MAX TEMP:  79;

JEFFERSON CITY CLOUDY    77  67  71 S12       29.78F
6HR MIN TEMP:  68; 6HR MAX TEMP:  77;

ROLLA          CLOUDY    73  68  84 S8        29.81F
6HR MIN TEMP:  66; 6HR MAX TEMP:  75; 6HR PCP: TRACE;

SEDALIA        PTSUNNY   80  69  69 S13       29.77F
6HR MIN TEMP:  70; 6HR MAX TEMP:  80;

WHITEMAN AFB   CLOUDY    77  69  77 SW17      29.75S
WARRENSBURG    PTSUNNY   77  66  69 S8        29.75S

$$
MOZ051-052-059>065-271900-
...EAST CENTRAL MISSOURI...

CITY           SKY/WX    TMP DP  RH WIND       PRES   REMARKS
ST LOUIS INTL  CLOUDY    76  67  73 S10       29.85F
6HR MIN TEMP:  69; 6HR MAX TEMP:  76; 6HR PCP:  0.07;

SPIRIT OF STL  CLOUDY    75  69  81 S9        29.83F
6HR MIN TEMP:  68; 6HR MAX TEMP:  75; 6HR PCP:  0.05;

ST CHARLES     CLOUDY    74  69  85 S14       29.83F
6HR MIN TEMP:  68; 6HR MAX TEMP:  75; 6HR PCP:  0.25;


$$
MOZ072>076-082>087-097>100-106>115-271900-
...SOUTH CENTRAL AND SOUTHEAST MISSOURI...

CITY           SKY/WX    TMP DP  RH WIND       PRES   REMARKS
CAPE GIRARDEAU CLOUDY    77  70  79 S13       29.89F
6HR MIN TEMP:  66; 6HR MAX TEMP:  79; 6HR PCP:  0.50;

FARMINGTON     CLOUDY    72  69  90 S12       29.88S
6HR MIN TEMP:  66; 6HR MAX TEMP:  72;

POPLAR BLUFF   CLOUDY    76  70  82 S10       29.87F
6HR MIN TEMP:  67; 6HR MAX TEMP:  76; 6HR PCP:  0.53;

WEST PLAINS    CLOUDY    74  66  76 S14G20    29.86F
6HR MIN TEMP:  67; 6HR MAX TEMP:  76; 6HR PCP:  0.01;


$$




USA.gov is the U.S. government's official web portal to all federal, state and local government web resources and services.